����,���ϕ���(m/s),���ϕ���,�ő�u�ԕ���(m/s),�ő啗��������,�C��(��),���x(%),10���Ԉړ��ώZ�J��(mm),1���Ԉړ��ώZ�J��(mm),���J��(mm),�݌v�J��(mm)
2023-04-10T00:00:00+09:00,1.1,�k�k��,1.6,�k�k��,4.7,91.5,0,0,0,0
2023-04-10T00:01:00+09:00,0.9,�k�k��,1.6,�k�k��,4.7,91.2,0,0,0,0
2023-04-10T00:02:00+09:00,0.9,�k,1.6,�k�k��,4.6,90.9,0,0,0,0
2023-04-10T00:03:00+09:00,0.8,�k,1.6,�k�k��,4.6,90.8,0,0,0,0
2023-04-10T00:04:00+09:00,0.7,�k,1.6,�k�k��,4.6,90.8,0,0,0,0
2023-04-10T00:05:00+09:00,0.6,�k�k��,1.6,�k�k��,4.6,90.9,0,0,0,0
2023-04-10T00:06:00+09:00,0.6,�k�k��,1.5,�k�k��,4.6,90.8,0,0,0,0
2023-04-10T00:07:00+09:00,0.6,�k�k��,1.3,�k,4.5,90.8,0,0,0,0
2023-04-10T00:08:00+09:00,0.6,�k�k��,1.4,�k�k��,4.5,90.8,0,0,0,0
2023-04-10T00:09:00+09:00,0.6,�k�k��,1.4,�k�k��,4.5,90.9,0,0,0,0
2023-04-10T00:10:00+09:00,0.6,�k�k��,1.4,�k�k��,4.5,91,0,0,0,0
2023-04-10T00:11:00+09:00,0.6,�k��,1.4,�k�k��,4.5,91.1,0,0,0,0
2023-04-10T00:12:00+09:00,0.7,�k��,1.4,�k�k��,4.5,91.1,0,0,0,0
2023-04-10T00:13:00+09:00,0.7,�k��,1.4,�k�k��,4.5,91.1,0,0,0,0
2023-04-10T00:14:00+09:00,0.8,�k��,1.4,�k�k��,4.5,91.3,0,0,0,0
2023-04-10T00:15:00+09:00,0.8,�k��,1.4,�k�k��,4.5,91.4,0,0,0,0
2023-04-10T00:16:00+09:00,0.8,�k��,1.4,�k�k��,4.5,91.6,0,0,0,0
2023-04-10T00:17:00+09:00,0.8,�k�k��,1.5,�k�k��,4.5,91.6,0,0,0,0
2023-04-10T00:18:00+09:00,0.8,�k�k��,1.5,�k�k��,4.6,91.7,0,0,0,0
2023-04-10T00:19:00+09:00,0.8,�k�k��,1.5,�k�k��,4.6,91.7,0,0,0,0
2023-04-10T00:20:00+09:00,0.9,�k�k��,1.7,�k�k��,4.6,91.6,0,0,0,0
2023-04-10T00:21:00+09:00,1,�k�k��,1.7,�k�k��,4.5,91.4,0,0,0,0
2023-04-10T00:22:00+09:00,1,�k�k��,1.7,�k�k��,4.5,91.1,0,0,0,0
2023-04-10T00:23:00+09:00,1.1,�k�k��,1.7,�k�k��,4.5,91.1,0,0,0,0
2023-04-10T00:24:00+09:00,1.2,�k�k��,1.7,�k�k��,4.5,91.2,0,0,0,0
2023-04-10T00:25:00+09:00,1.2,�k�k��,1.7,�k�k��,4.5,91.2,0,0,0,0
2023-04-10T00:26:00+09:00,1.3,�k�k��,1.7,�k�k��,4.5,91.3,0,0,0,0
2023-04-10T00:27:00+09:00,1.3,�k�k��,1.9,�k,4.4,91.3,0,0,0,0
2023-04-10T00:28:00+09:00,1.3,�k�k��,1.9,�k,4.4,91.4,0,0,0,0
2023-04-10T00:29:00+09:00,1.4,�k�k��,2,�k�k��,4.3,91.2,0,0,0,0
2023-04-10T00:30:00+09:00,1.4,�k�k��,2.1,�k,4.3,91.2,0,0,0,0
2023-04-10T00:31:00+09:00,1.4,�k�k��,2.1,�k,4.3,91.5,0,0,0,0
2023-04-10T00:32:00+09:00,1.4,�k�k��,2.1,�k,4.2,91.6,0,0,0,0
2023-04-10T00:33:00+09:00,1.4,�k�k��,2.1,�k,4.3,91.6,0,0,0,0
2023-04-10T00:34:00+09:00,1.4,�k�k��,2.1,�k,4.3,91.8,0,0,0,0
2023-04-10T00:35:00+09:00,1.3,�k�k��,2.1,�k,4.3,92,0,0,0,0
2023-04-10T00:36:00+09:00,1.3,�k�k��,2.1,�k,4.3,92.1,0,0,0,0
2023-04-10T00:37:00+09:00,1.3,�k�k��,2.1,�k,4.2,92,0,0,0,0
2023-04-10T00:38:00+09:00,1.2,�k�k��,2.1,�k,4.3,92.1,0,0,0,0
2023-04-10T00:39:00+09:00,1.1,�k�k��,2.1,�k,4.2,92.1,0,0,0,0
2023-04-10T00:40:00+09:00,1.1,�k�k��,1.8,�k,4.2,92.2,0,0,0,0
2023-04-10T00:41:00+09:00,1,�k�k��,1.8,�k,4.2,92.1,0,0,0,0
2023-04-10T00:42:00+09:00,0.9,�k�k��,1.8,�k,4.2,92.1,0,0,0,0
2023-04-10T00:43:00+09:00,0.9,�k�k��,1.8,�k,4.1,92.2,0,0,0,0
2023-04-10T00:44:00+09:00,1,�k�k��,1.8,�k,4.2,92.3,0,0,0,0
2023-04-10T00:45:00+09:00,0.9,�k�k��,1.8,�k,4.2,92.5,0,0,0,0
2023-04-10T00:46:00+09:00,0.9,�k�k��,1.6,�k�k��,4.2,92.7,0,0,0,0
2023-04-10T00:47:00+09:00,1,�k�k��,1.6,�k�k��,4.2,92.6,0,0,0,0
2023-04-10T00:48:00+09:00,1.1,�k��,2,�k��,4.1,92.5,0,0,0,0
2023-04-10T00:49:00+09:00,1.2,�k��,2.2,�k��,4.1,92.5,0,0,0,0
2023-04-10T00:50:00+09:00,1.2,�k��,2.2,�k��,4.1,92.5,0,0,0,0
2023-04-10T00:51:00+09:00,1.3,�k��,2.2,�k��,4.2,92.7,0,0,0,0
2023-04-10T00:52:00+09:00,1.3,�k��,2.2,�k��,4.2,92.8,0,0,0,0
2023-04-10T00:53:00+09:00,1.3,�k��,2.2,�k��,4.2,92.9,0,0,0,0
2023-04-10T00:54:00+09:00,1.2,�k��,2.2,�k��,4.3,93.1,0,0,0,0
2023-04-10T00:55:00+09:00,1.2,�k��,2.2,�k��,4.2,93,0,0,0,0
2023-04-10T00:56:00+09:00,1.2,�k��,2.2,�k��,4.2,92.9,0,0,0,0
2023-04-10T00:57:00+09:00,1.1,�k��,2.2,�k��,4.3,93.1,0,0,0,0
2023-04-10T00:58:00+09:00,1.1,�k�k��,2.2,�k��,4.2,93,0,0,0,0
2023-04-10T00:59:00+09:00,0.9,�k�k��,1.8,�k�k��,4.3,93.1,0,0,0,0
2023-04-10T01:00:00+09:00,0.9,�k�k��,1.5,�k�k��,4.3,93.2,0,0,0,0
2023-04-10T01:01:00+09:00,0.9,�k�k��,1.6,�k,4.3,93.1,0,0,0,0
2023-04-10T01:02:00+09:00,0.9,�k�k��,1.8,�k�k��,4.3,92.8,0,0,0,0
2023-04-10T01:03:00+09:00,0.9,�k�k��,1.8,�k�k��,4.3,92.8,0,0,0,0
2023-04-10T01:04:00+09:00,0.9,�k�k��,1.8,�k�k��,4.2,92.7,0,0,0,0
2023-04-10T01:05:00+09:00,0.9,�k�k��,1.8,�k�k��,4.1,92.4,0,0,0,0
2023-04-10T01:06:00+09:00,1,�k�k��,1.8,�k�k��,4.1,92.2,0,0,0,0
2023-04-10T01:07:00+09:00,1,�k�k��,1.8,�k�k��,4.1,92.3,0,0,0,0
2023-04-10T01:08:00+09:00,1,�k�k��,1.8,�k�k��,4.2,92.6,0,0,0,0
2023-04-10T01:09:00+09:00,1,�k�k��,1.8,�k�k��,4.2,92.8,0,0,0,0
2023-04-10T01:10:00+09:00,0.9,�k�k��,1.8,�k�k��,4.1,92.5,0,0,0,0
2023-04-10T01:11:00+09:00,0.9,�k�k��,1.8,�k�k��,4.1,92.4,0,0,0,0
2023-04-10T01:12:00+09:00,0.9,�k�k��,1.6,�k�k��,4,92.4,0,0,0,0
2023-04-10T01:13:00+09:00,0.9,�k�k��,1.6,�k�k��,4.1,92.6,0,0,0,0
2023-04-10T01:14:00+09:00,0.9,�k�k��,1.5,�k,4.2,92.9,0,0,0,0
2023-04-10T01:15:00+09:00,1,�k�k��,1.6,�k,4.1,92.9,0,0,0,0
2023-04-10T01:16:00+09:00,1,�k�k��,1.7,�k�k��,4.1,92.8,0,0,0,0
2023-04-10T01:17:00+09:00,1,�k�k��,1.7,�k�k��,4.1,92.8,0,0,0,0
2023-04-10T01:18:00+09:00,1,�k�k��,1.7,�k�k��,4.2,92.8,0,0,0,0
2023-04-10T01:19:00+09:00,1,�k�k��,1.7,�k�k��,4.1,92.8,0,0,0,0
2023-04-10T01:20:00+09:00,1.1,�k�k��,1.7,�k�k��,4,92.5,0,0,0,0
2023-04-10T01:21:00+09:00,1.1,�k�k��,1.9,�k�k��,4,92.5,0,0,0,0
2023-04-10T01:22:00+09:00,1,�k�k��,1.9,�k�k��,4.1,92.7,0,0,0,0
2023-04-10T01:23:00+09:00,1,�k�k��,1.9,�k�k��,4,92.8,0,0,0,0
2023-04-10T01:24:00+09:00,1,�k�k��,1.9,�k�k��,4,92.9,0,0,0,0
2023-04-10T01:25:00+09:00,0.9,�k�k��,1.9,�k�k��,4.1,92.9,0,0,0,0
2023-04-10T01:26:00+09:00,0.8,�k�k��,1.9,�k�k��,4,92.9,0,0,0,0
2023-04-10T01:27:00+09:00,0.7,�k�k��,1.9,�k�k��,4,92.9,0,0,0,0
2023-04-10T01:28:00+09:00,0.7,�k�k��,1.9,�k�k��,4,93,0,0,0,0
2023-04-10T01:29:00+09:00,0.6,�k�k��,1.9,�k�k��,4.1,93.1,0,0,0,0
2023-04-10T01:30:00+09:00,0.6,�k,1.9,�k�k��,4.1,93.3,0,0,0,0
2023-04-10T01:31:00+09:00,0.6,�k,1.6,�k�k��,4,93.2,0,0,0,0
2023-04-10T01:32:00+09:00,0.6,�k,1.5,�k,4.1,93.1,0,0,0,0
2023-04-10T01:33:00+09:00,0.6,�k,1.5,�k,4,93.1,0,0,0,0
2023-04-10T01:34:00+09:00,0.5,�k,1.5,�k,4,92.8,0,0,0,0
2023-04-10T01:35:00+09:00,0.5,�k,1.5,�k,4,93,0,0,0,0
2023-04-10T01:36:00+09:00,0.5,�k,1.5,�k,4,93,0,0,0,0
2023-04-10T01:37:00+09:00,0.6,�k,1.5,�k,3.9,92.9,0,0,0,0
2023-04-10T01:38:00+09:00,0.6,�k,1.5,�k,3.9,92.9,0,0,0,0
2023-04-10T01:39:00+09:00,0.6,�k�k��,1.5,�k,3.9,92.9,0,0,0,0
2023-04-10T01:40:00+09:00,0.6,�k�k��,1.5,�k,3.9,92.9,0,0,0,0
2023-04-10T01:41:00+09:00,0.6,�k�k��,1.5,�k,3.9,92.9,0,0,0,0
2023-04-10T01:42:00+09:00,0.5,�k�k��,1.1,�k,3.9,92.9,0,0,0,0
2023-04-10T01:43:00+09:00,0.5,�k�k��,1.1,�k,3.9,93.2,0,0,0,0
2023-04-10T01:44:00+09:00,0.4,�k��,1.1,�k,3.9,93.2,0,0,0,0
2023-04-10T01:45:00+09:00,0.4,�k��,1.1,�k,3.9,93.2,0,0,0,0
2023-04-10T01:46:00+09:00,0.4,�k��,1.1,�k,3.8,93,0,0,0,0
2023-04-10T01:47:00+09:00,0.4,���k��,1,���쐼,3.8,93.1,0,0,0,0
2023-04-10T01:48:00+09:00,0.4,���k��,1,���쐼,3.8,93.1,0,0,0,0
2023-04-10T01:49:00+09:00,0.3,���k��,1,���쐼,3.9,93.4,0,0,0,0
2023-04-10T01:50:00+09:00,0.3,���k��,1,���쐼,3.9,93.6,0,0,0,0
2023-04-10T01:51:00+09:00,0.3,���k��,1,���쐼,4,93.6,0,0,0,0
2023-04-10T01:52:00+09:00,0.3,���k��,1,���쐼,4,93.6,0,0,0,0
2023-04-10T01:53:00+09:00,0.3,���k��,1,���쐼,4.1,93.8,0,0,0,0
2023-04-10T01:54:00+09:00,0.3,���k��,1,���쐼,4.1,94,0,0,0,0
2023-04-10T01:55:00+09:00,0.3,�k��,1,���쐼,4.2,93.9,0,0,0,0
2023-04-10T01:56:00+09:00,0.3,���k��,1,���쐼,4.1,93.9,0,0,0,0
2023-04-10T01:57:00+09:00,0.2,�É�,0.7,���쓌,4.2,93.8,0,0,0,0
2023-04-10T01:58:00+09:00,0.2,�É�,0.7,���쓌,4.3,94,0,0,0,0
2023-04-10T01:59:00+09:00,0.2,�É�,0.7,���쓌,4.4,94.1,0,0,0,0
2023-04-10T02:00:00+09:00,0.2,�É�,0.7,���쓌,4.3,93.9,0,0,0,0
2023-04-10T02:01:00+09:00,0.2,�É�,0.7,���쓌,4.2,93.3,0,0,0,0
2023-04-10T02:02:00+09:00,0.2,�É�,0.7,���쓌,4.2,93,0,0,0,0
2023-04-10T02:03:00+09:00,0.2,�É�,0.7,���쓌,4.1,92.8,0,0,0,0
2023-04-10T02:04:00+09:00,0.2,�É�,0.7,���k��,4,92.6,0,0,0,0
2023-04-10T02:05:00+09:00,0.2,�É�,0.7,���k��,4,92.5,0,0,0,0
2023-04-10T02:06:00+09:00,0.2,�É�,0.7,���k��,3.9,92.3,0,0,0,0
2023-04-10T02:07:00+09:00,0.2,�É�,0.7,���k��,3.8,92.3,0,0,0,0
2023-04-10T02:08:00+09:00,0.3,�k�k��,1.3,�k,3.7,92,0,0,0,0
2023-04-10T02:09:00+09:00,0.4,�k�k��,1.3,�k,3.6,91.9,0,0,0,0
2023-04-10T02:10:00+09:00,0.4,�k�k��,1.3,�k,3.6,92.1,0,0,0,0
2023-04-10T02:11:00+09:00,0.5,�k�k��,1.3,�k,3.6,92.4,0,0,0,0
2023-04-10T02:12:00+09:00,0.6,�k�k��,1.3,�k,3.7,92.8,0,0,0,0
2023-04-10T02:13:00+09:00,0.7,�k�k��,1.3,�k,3.6,93.2,0,0,0,0
2023-04-10T02:14:00+09:00,0.7,�k�k��,1.3,�k,3.6,93,0,0,0,0
2023-04-10T02:15:00+09:00,0.7,�k�k��,1.3,�k,3.6,93.2,0,0,0,0
2023-04-10T02:16:00+09:00,0.8,�k,1.3,�k,3.6,93.3,0,0,0,0
2023-04-10T02:17:00+09:00,0.7,�k,1.3,�k,3.7,93.8,0,0,0,0
2023-04-10T02:18:00+09:00,0.7,�k,1.3,�k��,3.8,94.2,0,0,0,0
2023-04-10T02:19:00+09:00,0.6,�k,1.3,�k��,3.7,93.9,0,0,0,0
2023-04-10T02:20:00+09:00,0.6,�k,1.3,�k��,3.6,93.7,0,0,0,0
2023-04-10T02:21:00+09:00,0.5,�k,1.3,�k��,3.6,93.7,0,0,0,0
2023-04-10T02:22:00+09:00,0.5,�k�k��,1.3,�k��,3.5,93.5,0,0,0,0
2023-04-10T02:23:00+09:00,0.5,�k�k��,1.3,�k��,3.6,93.8,0,0,0,0
2023-04-10T02:24:00+09:00,0.4,�k�k��,1,�k,3.6,93.9,0,0,0,0
2023-04-10T02:25:00+09:00,0.4,�k�k��,1,�k,3.6,94,0,0,0,0
2023-04-10T02:26:00+09:00,0.4,�k�k��,0.9,�k�k��,3.6,94.1,0,0,0,0
2023-04-10T02:27:00+09:00,0.4,�k�k��,0.9,�k�k��,3.5,94.1,0,0,0,0
2023-04-10T02:28:00+09:00,0.5,�k�k��,0.9,�k�k��,3.5,94,0,0,0,0
2023-04-10T02:29:00+09:00,0.5,�k�k��,1,�k�k��,3.5,94,0,0,0,0
2023-04-10T02:30:00+09:00,0.6,�k��,1.8,�k�k��,3.5,94.1,0,0,0,0
2023-04-10T02:31:00+09:00,0.6,�k��,1.8,�k�k��,3.4,94.1,0,0,0,0
2023-04-10T02:32:00+09:00,0.7,�k�k��,1.8,�k�k��,3.5,94.2,0,0,0,0
2023-04-10T02:33:00+09:00,0.8,�k�k��,1.8,�k�k��,3.5,94.3,0,0,0,0
2023-04-10T02:34:00+09:00,0.8,�k�k��,1.8,�k�k��,3.5,94.2,0,0,0,0
2023-04-10T02:35:00+09:00,0.8,�k�k��,1.8,�k�k��,3.4,94.3,0,0,0,0
2023-04-10T02:36:00+09:00,0.9,�k�k��,1.8,�k�k��,3.4,94.3,0,0,0,0
2023-04-10T02:37:00+09:00,0.9,�k�k��,1.8,�k�k��,3.4,94.3,0,0,0,0
2023-04-10T02:38:00+09:00,0.9,�k�k��,1.8,�k�k��,3.4,94.3,0,0,0,0
2023-04-10T02:39:00+09:00,0.9,�k�k��,1.8,�k�k��,3.4,94.3,0,0,0,0
2023-04-10T02:40:00+09:00,0.9,�k�k��,1.8,�k,3.4,94.4,0,0,0,0
2023-04-10T02:41:00+09:00,0.8,�k�k��,1.8,�k,3.4,94.5,0,0,0,0
2023-04-10T02:42:00+09:00,0.7,�k�k��,1.6,�k�k��,3.4,94.5,0,0,0,0
2023-04-10T02:43:00+09:00,0.8,�k�k��,1.4,�k�k��,3.4,94.5,0,0,0,0
2023-04-10T02:44:00+09:00,0.8,�k�k��,1.4,�k�k��,3.4,94.5,0,0,0,0
2023-04-10T02:45:00+09:00,0.8,�k�k��,1.5,�k,3.4,94.6,0,0,0,0
2023-04-10T02:46:00+09:00,0.8,�k�k��,1.5,�k,3.5,95,0,0,0,0
2023-04-10T02:47:00+09:00,0.7,�k�k��,1.5,�k,3.5,95.1,0,0,0,0
2023-04-10T02:48:00+09:00,0.7,�k�k��,1.5,�k,3.5,94.9,0,0,0,0
2023-04-10T02:49:00+09:00,0.7,�k�k��,1.5,�k,3.4,94.7,0,0,0,0
2023-04-10T02:50:00+09:00,0.7,�k�k��,1.5,�k,3.4,94.8,0,0,0,0
2023-04-10T02:51:00+09:00,0.8,�k�k��,1.5,�k,3.3,94.6,0,0,0,0
2023-04-10T02:52:00+09:00,0.9,�k�k��,1.8,�k�k��,3.3,94.4,0,0,0,0
2023-04-10T02:53:00+09:00,0.9,�k�k��,2,�k,3.3,94.4,0,0,0,0
2023-04-10T02:54:00+09:00,1,�k�k��,2,�k,3.3,94.6,0,0,0,0
2023-04-10T02:55:00+09:00,1,�k�k��,2,�k,3.4,94.6,0,0,0,0
2023-04-10T02:56:00+09:00,1,�k�k��,2,�k,3.3,94.7,0,0,0,0
2023-04-10T02:57:00+09:00,1.1,�k�k��,2,�k,3.3,94.6,0,0,0,0
2023-04-10T02:58:00+09:00,1.1,�k�k��,2,�k,3.3,94.8,0,0,0,0
2023-04-10T02:59:00+09:00,1.1,�k�k��,2,�k,3.3,94.8,0,0,0,0
2023-04-10T03:00:00+09:00,1.1,�k��,2,�k,3.3,94.6,0,0,0,0
2023-04-10T03:01:00+09:00,1.1,�k��,2,�k,3.3,94.7,0,0,0,0
2023-04-10T03:02:00+09:00,1,�k��,2,�k,3.3,94.7,0,0,0,0
2023-04-10T03:03:00+09:00,0.9,�k��,1.7,�k,3.4,94.9,0,0,0,0
2023-04-10T03:04:00+09:00,0.8,�k��,1.4,�k��,3.5,95.2,0,0,0,0
2023-04-10T03:05:00+09:00,0.8,�k�k��,1.4,�k��,3.4,95.2,0,0,0,0
2023-04-10T03:06:00+09:00,0.7,�k�k��,1.2,�k��,3.5,95.2,0,0,0,0
2023-04-10T03:07:00+09:00,0.7,�k�k��,1.2,�k��,3.5,95.2,0,0,0,0
2023-04-10T03:08:00+09:00,0.6,�k�k��,1.2,�k��,3.5,95.2,0,0,0,0
2023-04-10T03:09:00+09:00,0.6,�k,1.2,�k��,3.5,95.1,0,0,0,0
2023-04-10T03:10:00+09:00,0.5,�k,1.1,�k�k��,3.5,95.1,0,0,0,0
2023-04-10T03:11:00+09:00,0.4,�k,1.1,�k�k��,3.5,95.1,0,0,0,0
2023-04-10T03:12:00+09:00,0.4,�k,1,�k,3.5,95.1,0,0,0,0
2023-04-10T03:13:00+09:00,0.3,�k�k��,0.7,���쐼,3.6,95.2,0,0,0,0
2023-04-10T03:14:00+09:00,0.3,�k�k��,0.7,���쐼,3.5,95.1,0,0,0,0
2023-04-10T03:15:00+09:00,0.3,�k�k��,0.7,���쐼,3.5,95.1,0,0,0,0
2023-04-10T03:16:00+09:00,0.3,�k��,0.7,���쐼,3.5,95.1,0,0,0,0
2023-04-10T03:17:00+09:00,0.3,�k��,0.7,���쐼,3.6,95.1,0,0,0,0
2023-04-10T03:18:00+09:00,0.3,�k��,0.7,���쐼,3.6,95.1,0,0,0,0
2023-04-10T03:19:00+09:00,0.3,�k��,0.7,���쐼,3.7,95.2,0,0,0,0
2023-04-10T03:20:00+09:00,0.3,�k��,0.7,���쐼,3.6,95.1,0,0,0,0
2023-04-10T03:21:00+09:00,0.4,�k��,1,�k�k��,3.4,94.5,0,0,0,0
2023-04-10T03:22:00+09:00,0.4,�k��,1.2,�k,3.4,94.3,0,0,0,0
2023-04-10T03:23:00+09:00,0.5,�k�k��,1.2,�k,3.4,94.3,0,0,0,0
2023-04-10T03:24:00+09:00,0.5,�k�k��,1.2,�k,3.4,94.7,0,0,0,0
2023-04-10T03:25:00+09:00,0.5,�k,1.2,�k,3.3,94.5,0,0,0,0
2023-04-10T03:26:00+09:00,0.6,�k,1.2,�k,3.2,94.2,0,0,0,0
2023-04-10T03:27:00+09:00,0.7,�k,1.3,�k,3.2,94.2,0,0,0,0
2023-04-10T03:28:00+09:00,0.7,�k,1.3,�k,3.2,94.4,0,0,0,0
2023-04-10T03:29:00+09:00,0.7,�k,1.3,�k,3.2,94.5,0,0,0,0
2023-04-10T03:30:00+09:00,0.7,�k,1.3,�k,3.2,94.6,0,0,0,0
2023-04-10T03:31:00+09:00,0.7,�k,1.3,�k,3.2,94.5,0,0,0,0
2023-04-10T03:32:00+09:00,0.7,�k,1.3,�k,3.2,94.5,0,0,0,0
2023-04-10T03:33:00+09:00,0.7,�k,1.3,�k,3.2,94.7,0,0,0,0
2023-04-10T03:34:00+09:00,0.7,�k,1.3,�k,3.3,94.9,0,0,0,0
2023-04-10T03:35:00+09:00,0.6,�k,1.3,�k,3.2,94.8,0,0,0,0
2023-04-10T03:36:00+09:00,0.6,�k,1.4,�k,3.2,94.7,0,0,0,0
2023-04-10T03:37:00+09:00,0.6,�k,1.4,�k,3.2,94.9,0,0,0,0
2023-04-10T03:38:00+09:00,0.7,�k,1.5,�k,3.1,94.7,0,0,0,0
2023-04-10T03:39:00+09:00,0.7,�k,1.5,�k,3.1,94.5,0,0,0,0
2023-04-10T03:40:00+09:00,0.8,�k,1.5,�k,3.1,94.5,0,0,0,0
2023-04-10T03:41:00+09:00,0.8,�k,1.5,�k,3.1,94.6,0,0,0,0
2023-04-10T03:42:00+09:00,0.8,�k,1.5,�k,3,94.7,0,0,0,0
2023-04-10T03:43:00+09:00,0.8,�k,1.5,�k,3.1,94.8,0,0,0,0
2023-04-10T03:44:00+09:00,0.9,�k,1.5,�k,3.1,94.9,0,0,0,0
2023-04-10T03:45:00+09:00,0.9,�k,1.5,�k,3.1,95,0,0,0,0
2023-04-10T03:46:00+09:00,0.9,�k,1.5,�k,3.1,95,0,0,0,0
2023-04-10T03:47:00+09:00,0.9,�k,1.5,�k,3,94.9,0,0,0,0
2023-04-10T03:48:00+09:00,0.9,�k,1.5,�k,3.1,94.9,0,0,0,0
2023-04-10T03:49:00+09:00,0.8,�k,1.5,�k,3,95.1,0,0,0,0
2023-04-10T03:50:00+09:00,0.8,�k,1.5,�k,3,95,0,0,0,0
2023-04-10T03:51:00+09:00,0.7,�k�k��,1.5,�k,3,95,0,0,0,0
2023-04-10T03:52:00+09:00,0.6,�k�k��,1.4,�k,3.1,95.1,0,0,0,0
2023-04-10T03:53:00+09:00,0.5,�k�k��,1.4,�k,3,95.1,0,0,0,0
2023-04-10T03:54:00+09:00,0.5,�k�k��,1.2,�k��,3,95.1,0,0,0,0
2023-04-10T03:55:00+09:00,0.5,�k�k��,1.2,�k��,3.1,95.2,0,0,0,0
2023-04-10T03:56:00+09:00,0.4,�k�k��,1.2,�k��,3.1,95.2,0,0,0,0
2023-04-10T03:57:00+09:00,0.4,�k�k��,1.2,�k��,3.1,95.2,0,0,0,0
2023-04-10T03:58:00+09:00,0.3,�k�k��,0.8,���k��,3.1,95.4,0,0,0,0
2023-04-10T03:59:00+09:00,0.2,�É�,0.8,���k��,3,95.3,0,0,0,0
2023-04-10T04:00:00+09:00,0.2,�É�,0.8,���k��,2.9,95.1,0,0,0,0
2023-04-10T04:01:00+09:00,0.3,�k�k��,1,�k��,2.9,95.1,0,0,0,0
2023-04-10T04:02:00+09:00,0.3,�k�k��,1.1,�k�k��,2.9,95.2,0,0,0,0
2023-04-10T04:03:00+09:00,0.4,�k�k��,1.1,�k�k��,3,95.2,0,0,0,0
2023-04-10T04:04:00+09:00,0.4,�k�k��,1.1,�k�k��,3,95.2,0,0,0,0
2023-04-10T04:05:00+09:00,0.5,�k�k��,1.2,�k,3,95.3,0,0,0,0
2023-04-10T04:06:00+09:00,0.5,�k�k��,1.2,�k,3.1,95.4,0,0,0,0
2023-04-10T04:07:00+09:00,0.6,�k�k��,1.2,�k,3,95.4,0,0,0,0
2023-04-10T04:08:00+09:00,0.6,�k�k��,1.2,�k,3,95.3,0,0,0,0
2023-04-10T04:09:00+09:00,0.7,�k�k��,1.2,�k,3.1,95.3,0,0,0,0
2023-04-10T04:10:00+09:00,0.7,�k�k��,1.2,�k,3.1,95.4,0,0,0,0
2023-04-10T04:11:00+09:00,0.7,�k�k��,1.2,�k,3.1,95.4,0,0,0,0
2023-04-10T04:12:00+09:00,0.7,�k�k��,1.2,�k,3.1,95.4,0,0,0,0
2023-04-10T04:13:00+09:00,0.7,�k��,1.2,�k,3.1,95.4,0,0,0,0
2023-04-10T04:14:00+09:00,0.7,�k��,1.2,�k,3.1,95.4,0,0,0,0
2023-04-10T04:15:00+09:00,0.7,�k��,1.2,�k�k��,3.1,95.4,0,0,0,0
2023-04-10T04:16:00+09:00,0.7,�k��,1.2,�k�k��,3,95.4,0,0,0,0
2023-04-10T04:17:00+09:00,0.7,���k��,1,���k��,3,95.3,0,0,0,0
2023-04-10T04:18:00+09:00,0.7,���k��,1,���k��,3.1,95.3,0,0,0,0
2023-04-10T04:19:00+09:00,0.7,���k��,1,���k��,3.1,95.4,0,0,0,0
2023-04-10T04:20:00+09:00,0.7,���k��,1,���k��,3,95.3,0,0,0,0
2023-04-10T04:21:00+09:00,0.7,���k��,1,���k��,3,95.3,0,0,0,0
2023-04-10T04:22:00+09:00,0.7,���k��,1,���k��,3,95.3,0,0,0,0
2023-04-10T04:23:00+09:00,0.7,���k��,1,���k��,2.9,95.3,0,0,0,0
2023-04-10T04:24:00+09:00,0.7,���k��,1,���k��,2.9,95.3,0,0,0,0
2023-04-10T04:25:00+09:00,0.7,���k��,1,���k��,2.9,95.3,0,0,0,0
2023-04-10T04:26:00+09:00,0.6,���k��,1,���k��,3,95.3,0,0,0,0
2023-04-10T04:27:00+09:00,0.5,���k��,0.9,���k��,3.1,95.5,0,0,0,0
2023-04-10T04:28:00+09:00,0.5,���k��,0.9,���k��,3.1,95.5,0,0,0,0
2023-04-10T04:29:00+09:00,0.5,�k��,0.8,�k�k��,3,95.3,0,0,0,0
2023-04-10T04:30:00+09:00,0.5,�k��,0.9,�k,2.9,95.2,0,0,0,0
2023-04-10T04:31:00+09:00,0.5,�k��,0.9,�k,3,95.3,0,0,0,0
2023-04-10T04:32:00+09:00,0.5,�k��,0.9,�k,3,95.4,0,0,0,0
2023-04-10T04:33:00+09:00,0.4,�k�k��,0.9,�k,3,95.4,0,0,0,0
2023-04-10T04:34:00+09:00,0.4,�k�k��,0.9,�k,3.1,95.4,0,0,0,0
2023-04-10T04:35:00+09:00,0.4,�k�k��,0.9,�k,3.1,95.5,0,0,0,0
2023-04-10T04:36:00+09:00,0.4,�k�k��,0.9,�k,3.2,95.5,0,0,0,0
2023-04-10T04:37:00+09:00,0.4,�k�k��,0.9,�k,3.2,95.5,0,0,0,0
2023-04-10T04:38:00+09:00,0.4,�k�k��,0.9,�k,3.1,95.4,0,0,0,0
2023-04-10T04:39:00+09:00,0.4,�k�k��,0.9,�k,3,95.2,0,0,0,0
2023-04-10T04:40:00+09:00,0.4,�k�k��,0.9,�k��,3,95.2,0,0,0,0
2023-04-10T04:41:00+09:00,0.4,�k�k��,0.9,�k��,2.9,95.2,0,0,0,0
2023-04-10T04:42:00+09:00,0.4,�k�k��,0.9,�k��,2.9,95.2,0,0,0,0
2023-04-10T04:43:00+09:00,0.4,�k�k��,0.9,�k��,2.9,95.2,0,0,0,0
2023-04-10T04:44:00+09:00,0.5,�k�k��,1,�k��,2.9,95.2,0,0,0,0
2023-04-10T04:45:00+09:00,0.5,�k�k��,1,�k��,2.9,95.2,0,0,0,0
2023-04-10T04:46:00+09:00,0.5,�k��,1,�k��,2.8,95.2,0,0,0,0
2023-04-10T04:47:00+09:00,0.6,�k��,1,�k��,2.9,95.2,0,0,0,0
2023-04-10T04:48:00+09:00,0.6,�k��,1,�k��,2.8,95.2,0,0,0,0
2023-04-10T04:49:00+09:00,0.6,�k��,1.3,�k��,2.8,95.2,0,0,0,0
2023-04-10T04:50:00+09:00,0.7,�k��,1.4,�k�k��,2.8,95.2,0,0,0,0
2023-04-10T04:51:00+09:00,0.8,�k��,1.5,�k��,2.8,95.2,0,0,0,0
2023-04-10T04:52:00+09:00,0.8,�k��,1.5,�k��,2.8,95.2,0,0,0,0
2023-04-10T04:53:00+09:00,0.9,�k��,1.7,�k��,2.8,95.3,0,0,0,0
2023-04-10T04:54:00+09:00,0.9,�k��,1.7,�k��,2.8,95.2,0,0,0,0
2023-04-10T04:55:00+09:00,1,�k��,1.7,�k��,2.7,95.2,0,0,0,0
2023-04-10T04:56:00+09:00,1,�k��,1.7,�k��,2.7,95.2,0,0,0,0
2023-04-10T04:57:00+09:00,1,�k��,1.7,�k��,2.7,95.2,0,0,0,0
2023-04-10T04:58:00+09:00,1.1,�k��,1.7,�k��,2.8,95.3,0,0,0,0
2023-04-10T04:59:00+09:00,1.1,�k��,1.7,�k��,2.8,95.4,0,0,0,0
2023-04-10T05:00:00+09:00,1,�k��,1.7,�k��,2.9,95.5,0,0,0,0
2023-04-10T05:01:00+09:00,0.9,�k��,1.7,�k��,2.9,95.6,0,0,0,0
2023-04-10T05:02:00+09:00,0.9,�k��,1.7,�k��,3,95.6,0,0,0,0
2023-04-10T05:03:00+09:00,0.8,�k��,1.5,�k��,3,95.6,0,0,0,0
2023-04-10T05:04:00+09:00,0.7,�k��,1.5,�k��,3,95.6,0,0,0,0
2023-04-10T05:05:00+09:00,0.7,�k��,1.4,�k��,3,95.5,0,0,0,0
2023-04-10T05:06:00+09:00,0.6,�k��,1.3,�k��,3,95.5,0,0,0,0
2023-04-10T05:07:00+09:00,0.6,�k��,1.3,�k��,3,95.5,0,0,0,0
2023-04-10T05:08:00+09:00,0.5,�k�k��,1.3,�k��,3,95.5,0,0,0,0
2023-04-10T05:09:00+09:00,0.5,�k�k��,1,�k��,3.1,95.5,0,0,0,0
2023-04-10T05:10:00+09:00,0.4,�k��,0.8,�k��,3.1,95.5,0,0,0,0
2023-04-10T05:11:00+09:00,0.4,�k��,0.8,�k��,3.1,95.5,0,0,0,0
2023-04-10T05:12:00+09:00,0.4,�k��,0.8,�k��,3.1,95.5,0,0,0,0
2023-04-10T05:13:00+09:00,0.3,�k��,0.8,�k��,3.1,95.5,0,0,0,0
2023-04-10T05:14:00+09:00,0.3,�k��,0.8,�k��,3.1,95.6,0,0,0,0
2023-04-10T05:15:00+09:00,0.3,�k��,0.8,�k��,3.1,95.5,0,0,0,0
2023-04-10T05:16:00+09:00,0.3,�k��,0.7,�k��,3.1,95.5,0,0,0,0
2023-04-10T05:17:00+09:00,0.3,�k��,0.7,�k��,2.9,95.3,0,0,0,0
2023-04-10T05:18:00+09:00,0.3,�k��,0.8,�k�k��,2.9,95.2,0,0,0,0
2023-04-10T05:19:00+09:00,0.3,�k�k��,0.8,�k�k��,2.9,95.3,0,0,0,0
2023-04-10T05:20:00+09:00,0.3,�k�k��,0.8,�k�k��,2.8,95.2,0,0,0,0
2023-04-10T05:21:00+09:00,0.3,�k�k��,0.8,�k�k��,2.7,95,0,0,0,0
2023-04-10T05:22:00+09:00,0.3,�k�k��,0.8,�k�k��,2.6,94.9,0,0,0,0
2023-04-10T05:23:00+09:00,0.3,�k,0.8,�k�k��,2.7,95.1,0,0,0,0
2023-04-10T05:24:00+09:00,0.3,�k,0.8,�k�k��,2.6,95.2,0,0,0,0
2023-04-10T05:25:00+09:00,0.3,�k,0.8,�k�k��,2.6,95.1,0,0,0,0
2023-04-10T05:26:00+09:00,0.3,�k,0.8,�k�k��,2.6,95.1,0,0,0,0
2023-04-10T05:27:00+09:00,0.3,�k�k��,0.8,�k�k��,2.6,95.1,0,0,0,0
2023-04-10T05:28:00+09:00,0.2,�É�,0.7,�k,2.6,95.2,0,0,0,0
2023-04-10T05:29:00+09:00,0.2,�É�,0.7,�k,2.7,95.3,0,0,0,0
2023-04-10T05:30:00+09:00,0.2,�É�,0.5,�k,2.7,95.3,0,0,0,0
2023-04-10T05:31:00+09:00,0.1,�É�,0.5,�k,2.6,95.2,0,0,0,0
2023-04-10T05:32:00+09:00,0.1,�É�,0.4,�k��,2.6,95.2,0,0,0,0
2023-04-10T05:33:00+09:00,0.1,�É�,0.4,�k��,2.7,95.3,0,0,0,0
2023-04-10T05:34:00+09:00,0.1,�É�,0.4,�k��,2.7,95.4,0,0,0,0
2023-04-10T05:35:00+09:00,0.1,�É�,0.4,�k��,2.7,95.4,0,0,0,0
2023-04-10T05:36:00+09:00,0.1,�É�,0.4,�k��,2.7,95.5,0,0,0,0
2023-04-10T05:37:00+09:00,0.1,�É�,0.3,���k��,2.7,95.5,0,0,0,0
2023-04-10T05:38:00+09:00,0.1,�É�,0.3,���k��,2.7,95.4,0,0,0,0
2023-04-10T05:39:00+09:00,0,�É�,0.2,�k,2.8,95.4,0,0,0,0
2023-04-10T05:40:00+09:00,0,�É�,0.2,�k,2.7,95.5,0,0,0,0
2023-04-10T05:41:00+09:00,,,,,,,,,,
2023-04-10T05:42:00+09:00,0,�É�,0.3,�k,2.6,95.3,0,0,0,0
2023-04-10T05:43:00+09:00,0,�É�,0.3,�k,2.6,95.3,0,0,0,0
2023-04-10T05:44:00+09:00,0,�É�,0.3,�k,2.6,95.3,0,0,0,0
2023-04-10T05:45:00+09:00,0,�É�,0.4,�k�k��,2.5,95.3,0,0,0,0
2023-04-10T05:46:00+09:00,0.1,�É�,0.7,�k�k��,2.5,95.2,0,0,0,0
2023-04-10T05:47:00+09:00,0.2,�É�,0.7,�k�k��,2.5,95.2,0,0,0,0
2023-04-10T05:48:00+09:00,0.2,�É�,0.7,�k�k��,2.5,95.2,0,0,0,0
2023-04-10T05:49:00+09:00,0.3,�k�k��,0.7,�k�k��,2.4,95.3,0,0,0,0
2023-04-10T05:50:00+09:00,0.3,�k�k��,0.8,�k�k��,2.4,95.2,0,0,0,0
2023-04-10T05:51:00+09:00,0.4,�k�k��,0.8,�k�k��,2.4,95.2,0,0,0,0
2023-04-10T05:52:00+09:00,0.4,�k�k��,0.8,�k�k��,2.4,95.3,0,0,0,0
2023-04-10T05:53:00+09:00,0.5,�k�k��,0.8,�k�k��,2.5,95.4,0,0,0,0
2023-04-10T05:54:00+09:00,0.5,�k�k��,0.8,�k�k��,2.6,95.6,0,0,0,0
2023-04-10T05:55:00+09:00,0.5,�k�k��,0.8,�k�k��,2.6,95.6,0,0,0,0
2023-04-10T05:56:00+09:00,0.6,�k�k��,0.8,�k�k��,2.6,95.6,0,0,0,0
2023-04-10T05:57:00+09:00,0.6,�k�k��,1,�k�k��,2.6,95.6,0,0,0,0
2023-04-10T05:58:00+09:00,0.6,�k�k��,1,�k�k��,2.6,95.6,0,0,0,0
2023-04-10T05:59:00+09:00,0.6,�k�k��,1,�k�k��,2.6,95.6,0,0,0,0
2023-04-10T06:00:00+09:00,0.6,�k�k��,1,�k�k��,2.6,95.6,0,0,0,0
2023-04-10T06:01:00+09:00,0.6,�k�k��,1,�k�k��,2.6,95.6,0,0,0,0
2023-04-10T06:02:00+09:00,0.6,�k�k��,1,�k�k��,2.6,95.5,0,0,0,0
2023-04-10T06:03:00+09:00,0.6,�k�k��,1,�k�k��,2.7,95.6,0,0,0,0
2023-04-10T06:04:00+09:00,0.6,�k�k��,1,�k�k��,2.7,95.7,0,0,0,0
2023-04-10T06:05:00+09:00,0.6,�k,1,�k�k��,2.8,95.7,0,0,0,0
2023-04-10T06:06:00+09:00,0.5,�k,1,�k�k��,2.7,95.7,0,0,0,0
2023-04-10T06:07:00+09:00,0.4,�k,1,�k�k��,2.6,95.6,0,0,0,0
2023-04-10T06:08:00+09:00,0.4,�k,0.9,�k,2.6,95.4,0,0,0,0
2023-04-10T06:09:00+09:00,0.3,�k,0.9,�k,2.6,95.4,0,0,0,0
2023-04-10T06:10:00+09:00,0.2,�É�,0.9,�k,2.6,95.5,0,0,0,0
2023-04-10T06:11:00+09:00,0.2,�É�,0.7,�k,2.7,95.6,0,0,0,0
2023-04-10T06:12:00+09:00,0.1,�É�,0.7,�k,2.7,95.6,0,0,0,0
2023-04-10T06:13:00+09:00,0.1,�É�,0.7,�k,2.7,95.6,0,0,0,0
2023-04-10T06:14:00+09:00,0.1,�É�,0.7,�k,2.7,95.6,0,0,0,0
2023-04-10T06:15:00+09:00,0.1,�É�,0.4,�k�k��,2.6,95.6,0,0,0,0
2023-04-10T06:16:00+09:00,0.1,�É�,0.4,�k��,2.5,95.4,0,0,0,0
2023-04-10T06:17:00+09:00,0.1,�É�,0.5,�k��,2.6,95.4,0,0,0,0
2023-04-10T06:18:00+09:00,0.1,�É�,0.6,�k�k��,2.5,95.4,0,0,0,0
2023-04-10T06:19:00+09:00,0.2,�É�,0.6,�k�k��,2.6,95.4,0,0,0,0
2023-04-10T06:20:00+09:00,0.2,�É�,0.6,�k�k��,2.6,95.5,0,0,0,0
2023-04-10T06:21:00+09:00,0.2,�É�,0.6,�k�k��,2.6,95.6,0,0,0,0
2023-04-10T06:22:00+09:00,0.3,�k��,0.6,�k�k��,2.7,95.6,0,0,0,0
2023-04-10T06:23:00+09:00,0.3,�k�k��,0.6,�k�k��,2.7,95.6,0,0,0,0
2023-04-10T06:24:00+09:00,0.3,�k��,0.6,�k�k��,2.8,95.7,0,0,0,0
2023-04-10T06:25:00+09:00,0.3,�k�k��,0.6,�k�k��,2.8,95.7,0,0,0,0
2023-04-10T06:26:00+09:00,0.3,�k�k��,0.6,�k�k��,2.9,95.7,0,0,0,0
2023-04-10T06:27:00+09:00,0.3,�k�k��,0.6,�k�k��,2.9,95.7,0,0,0,0
2023-04-10T06:28:00+09:00,0.3,�k�k��,0.6,�k,2.9,95.7,0,0,0,0
2023-04-10T06:29:00+09:00,0.2,�É�,0.5,���k��,2.9,95.7,0,0,0,0
2023-04-10T06:30:00+09:00,0.3,�k��,0.6,���k��,3,95.7,0,0,0,0
2023-04-10T06:31:00+09:00,0.3,�k��,0.6,���k��,3,95.7,0,0,0,0